Location: Innsbruck
(47.2657°N, 11.3914°E)
Time: 14:27:50
(UTC+02:00)

Nauka - Visible Passes

Search period start: 21 September 2021 00:00
Search period end: 01 October 2021 00:00
Orbit: 419 x 423 km, 51.6° (Epoch: 20 September)

Date Brightness Start Highest point End Pass type
(mag) Time Alt. Az. Time Alt. Az. Time Alt. Az.
21 Sep ? 20:08:22 10° WSW 20:11:45 83° NNW 20:14:52 12° ENE visible
21 Sep ? 21:45:41 10° WNW 21:47:52 30° NW 21:47:52 30° NW visible
22 Sep ? 20:58:39 10° W 21:01:53 41° N 21:02:48 33° NNE visible
23 Sep ? 20:11:36 10° W 20:14:53 48° NNW 20:17:42 13° ENE visible
23 Sep ? 21:48:57 10° WNW 21:50:41 25° NW 21:50:41 25° NW visible
24 Sep ? 21:01:57 10° WNW 21:05:08 37° N 21:05:32 35° NNE visible
25 Sep ? 20:14:56 10° WNW 20:18:07 38° N 20:20:22 17° ENE visible
25 Sep ? 21:52:02 10° WNW 21:53:21 21° NW 21:53:21 21° NW visible
26 Sep ? 19:27:52 10° W 19:31:06 41° N 19:34:20 10° ENE visible
26 Sep ? 21:05:07 10° WNW 21:08:10 43° N 21:08:10 43° N visible
27 Sep ? 20:18:09 10° WNW 20:21:21 39° N 20:23:00 23° ENE visible
27 Sep ? 21:55:03 10° WNW 21:55:59 17° WNW 21:55:59 17° WNW visible
28 Sep ? 19:31:09 10° WNW 19:34:19 37° N 19:37:31 10° ENE visible
28 Sep ? 21:08:07 10° WNW 21:10:49 51° NW 21:10:49 51° NW visible
29 Sep ? 20:21:13 10° WNW 20:24:32 54° NNE 20:25:41 34° ENE visible
29 Sep ? 21:58:10 10° WNW 21:58:40 13° W 21:58:40 13° W visible
30 Sep ? 19:34:16 10° WNW 19:37:32 44° NNE 19:40:34 11° E visible
30 Sep ? 21:11:09 10° WNW 21:13:34 40° W 21:13:34 40° W visible
